Weather History for Thief River Falls, MN

Change the Weather History Date:

Tuesday, October 23, 2012

  Actual Average Record
Temperature  
Mean Temperature 50 °F -  
Max Temperature 55 °F 45 °F 73 °F (1989)
Min Temperature 44 °F 31 °F 12 °F (1981)
Degree Days  
Heating Degree Days 16    
Moisture  
Dew Point 47 °F    
Average Humidity 87    
Maximum Humidity 94    
Minimum Humidity 71    
Precipitation  
Precipitation 0.13 in - - ()
Sea Level Pressure  
Sea Level Pressure 29.74 in    
Wind  
Wind Speed 14 mph (ESE)    
Max Wind Speed 18 mph    
Max Gust Speed 23 mph    
Visibility 7 miles    
Events      
Averages and records for this station are not official NWS values.
T = Trace of Precipitation, MM = Missing Value Source: NWS Daily Summary

Daily Weather History Graph

Daily Weather History Graph

Search for Another Location

Airport:

Trip Planner

Search our weather history database for the weather conditions in past years. The results will help you decide how hot, cold, wet, or windy it might be!

Date:

Astronomy

Oct. 23, 2012 Rise Set
Actual Time 7:56 AM CDT 6:20 PM CDT
Civil Twilight 7:24 AM CDT 6:52 PM CDT
Nautical Twilight 6:48 AM CDT 7:28 PM CDT
Astronomical Twilight 6:12 AM CDT 8:04 PM CDT
Moon 3:27 PM CDT (10/23) 1:23 AM CDT (10/23)
Length of Visible Light 11h 27m
Length of Day
10h 23m
Waxing Gibbous, 67% of the Moon is Illuminated
Oct 23
Waxing Gibbous
Oct 29
Full
Nov 6
Last Quarter
Nov 13
New
Nov 20
First Quarter

Hourly Weather History & Observations

Time (CDT) Temp. Windchill Dew Point Humidity Pressure Visibility Wind Dir Wind Speed Gust Speed Precip Events Conditions
12:15 AM 46.4 °F 39.2 °F 37.4 °F 71% 29.91 in 10.0 mi ENE 18.4 mph 21.9 mph N/A   Overcast
12:35 AM 46.4 °F 40.7 °F 37.4 °F 71% 29.92 in 10.0 mi East 12.7 mph 20.7 mph N/A   Overcast
12:55 AM 44.6 °F 38.4 °F 39.2 °F 81% 29.92 in 9.0 mi East 12.7 mph - 0.02 in   Overcast
1:15 AM 44.6 °F 37.4 °F 42.8 °F 93% 29.90 in 10.0 mi East 16.1 mph - 0.04 in   Overcast
1:35 AM 44.6 °F 37.8 °F 42.8 °F 93% 29.88 in 10.0 mi East 15.0 mph - 0.05 in   Overcast
1:55 AM 44.6 °F 37.8 °F 42.8 °F 93% 29.87 in 10.0 mi East 15.0 mph 19.6 mph 0.05 in   Overcast
2:15 AM 44.6 °F 37.2 °F 42.8 °F 93% 29.86 in 10.0 mi East 17.3 mph - 0.01 in   Overcast
2:35 AM 46.4 °F 40.4 °F 44.6 °F 93% 29.85 in 10.0 mi East 13.8 mph - 0.02 in   Overcast
2:55 AM 46.4 °F 40.4 °F 44.6 °F 93% 29.85 in 10.0 mi East 13.8 mph - 0.02 in   Overcast
3:15 AM 48.2 °F - 44.6 °F 87% 29.85 in 10.0 mi East 17.3 mph - N/A   Overcast
3:35 AM 48.2 °F - 44.6 °F 87% 29.84 in 10.0 mi ESE 16.1 mph 21.9 mph N/A   Overcast
3:55 AM 48.2 °F - 44.6 °F 87% 29.84 in 10.0 mi East 16.1 mph - N/A   Overcast
4:15 AM 46.4 °F 40.1 °F 44.6 °F 93% 29.84 in 10.0 mi East 15.0 mph 21.9 mph N/A   Overcast
4:35 AM 46.4 °F 40.4 °F 44.6 °F 93% 29.83 in 10.0 mi East 13.8 mph - N/A   Overcast
4:55 AM 46.4 °F 40.1 °F 44.6 °F 93% 29.83 in 10.0 mi East 15.0 mph - N/A   Overcast
5:15 AM 48.2 °F - 44.6 °F 87% 29.82 in 10.0 mi East 15.0 mph - N/A   Overcast
5:35 AM 48.2 °F - 44.6 °F 87% 29.82 in 10.0 mi East 12.7 mph - N/A   Overcast
5:55 AM 48.2 °F - 44.6 °F 87% 29.82 in 10.0 mi East 13.8 mph 19.6 mph N/A   Overcast
6:35 AM 48.2 °F - 44.6 °F 87% 29.82 in 8.0 mi East 13.8 mph - N/A   Overcast
6:55 AM 48.2 °F - 44.6 °F 87% 29.81 in 7.0 mi East 17.3 mph 21.9 mph N/A   Overcast
7:15 AM 48.2 °F - 44.6 °F 87% 29.80 in 8.0 mi East 17.3 mph 21.9 mph N/A   Overcast
7:35 AM 48.2 °F - 44.6 °F 87% 29.80 in 10.0 mi East 16.1 mph 23.0 mph N/A   Overcast
7:55 AM 48.2 °F - 44.6 °F 87% 29.80 in 10.0 mi East 16.1 mph 23.0 mph N/A   Overcast
8:15 AM 48.2 °F - 44.6 °F 87% 29.77 in 10.0 mi East 17.3 mph - N/A   Overcast
8:35 AM 48.2 °F - 44.6 °F 87% 29.78 in 8.0 mi East 13.8 mph 18.4 mph N/A   Overcast
8:55 AM 48.2 °F - 44.6 °F 87% 29.77 in 8.0 mi East 17.3 mph 23.0 mph N/A   Overcast
9:15 AM 48.2 °F - 44.6 °F 87% 29.77 in 10.0 mi East 16.1 mph 23.0 mph N/A   Overcast
9:35 AM 48.2 °F - 44.6 °F 87% 29.76 in 10.0 mi East 17.3 mph - N/A   Overcast
10:15 AM 50.0 °F - 46.4 °F 87% 29.75 in 7.0 mi East 15.0 mph 21.9 mph N/A   Overcast
10:55 AM 51.8 °F - 46.4 °F 82% 29.75 in 3.0 mi ESE 13.8 mph - N/A   Overcast
11:15 AM 50.0 °F - 46.4 °F 87% 29.74 in 3.0 mi East 15.0 mph - N/A   Overcast
11:35 AM 50.0 °F - 46.4 °F 87% 29.74 in 3.0 mi East 11.5 mph - N/A   Overcast
11:55 AM 50.0 °F - 46.4 °F 87% 29.73 in 4.0 mi East 12.7 mph - N/A   Overcast
12:15 PM 51.8 °F - 48.2 °F 88% 29.73 in 2.5 mi East 12.7 mph 16.1 mph N/A   Overcast
12:35 PM 51.8 °F - 46.4 °F 82% 29.73 in 4.0 mi East 11.5 mph - 0.01 in   Overcast
12:55 PM 51.8 °F - 48.2 °F 88% 29.72 in 3.0 mi ESE 13.8 mph - 0.01 in   Overcast
1:15 PM 51.8 °F - 48.2 °F 88% 29.71 in 2.0 mi East 12.7 mph - N/A   Overcast
1:35 PM 51.8 °F - 48.2 °F 88% 29.70 in 5.0 mi ESE 11.5 mph - N/A   Overcast
1:55 PM 53.6 °F - 48.2 °F 82% 29.69 in 7.0 mi ESE 12.7 mph - N/A   Overcast
2:15 PM 51.8 °F - 48.2 °F 88% 29.68 in 4.0 mi ESE 13.8 mph - 0.01 in   Overcast
2:35 PM 53.6 °F - 48.2 °F 82% 29.67 in 4.0 mi ESE 12.7 mph - 0.01 in   Overcast
2:55 PM 53.6 °F - 48.2 °F 82% 29.66 in 6.0 mi ESE 13.8 mph - 0.01 in   Overcast
3:15 PM 51.8 °F - 48.2 °F 88% 29.65 in 3.0 mi ESE 12.7 mph - N/A   Overcast
3:35 PM 53.6 °F - 50.0 °F 88% 29.65 in 7.0 mi ESE 12.7 mph - N/A   Overcast
3:55 PM 53.6 °F - 48.2 °F 82% 29.65 in 10.0 mi ESE 13.8 mph - N/A   Overcast
4:15 PM 53.6 °F - 48.2 °F 82% 29.65 in 8.0 mi ESE 10.4 mph - N/A   Overcast
4:35 PM 53.6 °F - 50.0 °F 88% 29.66 in 6.0 mi SE 8.1 mph - N/A   Overcast
4:55 PM 53.6 °F - 50.0 °F 88% 29.65 in 2.5 mi ESE 11.5 mph - N/A   Overcast
5:15 PM 53.6 °F - 50.0 °F 88% 29.65 in 4.0 mi SE 9.2 mph - N/A   Overcast
5:35 PM 53.6 °F - 50.0 °F 88% 29.64 in 2.5 mi SE 12.7 mph - N/A   Overcast
5:55 PM 53.6 °F - 50.0 °F 88% 29.64 in 3.0 mi SE 11.5 mph - N/A   Overcast
6:15 PM 55.4 °F - 50.0 °F 82% 29.64 in 3.0 mi SE 11.5 mph - N/A   Overcast
6:35 PM 53.6 °F - 50.0 °F 88% 29.63 in 4.0 mi SE 10.4 mph 16.1 mph N/A   Overcast
6:55 PM 55.4 °F - 51.8 °F 88% 29.63 in 7.0 mi SE 10.4 mph - N/A   Overcast
7:15 PM 55.4 °F - 51.8 °F 88% 29.67 in 7.0 mi SSW 6.9 mph - N/A   Overcast
7:35 PM 55.4 °F - 51.8 °F 88% 29.68 in 2.5 mi SSW 6.9 mph - 0.01 in   Overcast
7:55 PM 53.6 °F - 51.8 °F 94% 29.67 in 3.0 mi South 8.1 mph - 0.01 in   Overcast
8:15 PM 53.6 °F - 51.8 °F 94% 29.67 in 4.0 mi South 9.2 mph - N/A   Overcast
8:35 PM 55.4 °F - 51.8 °F 88% 29.67 in 2.5 mi South 8.1 mph - N/A   Overcast
8:55 PM 55.4 °F - 51.8 °F 88% 29.67 in 2.5 mi South 8.1 mph - N/A   Overcast
9:15 PM 55.4 °F - 51.8 °F 88% 29.67 in 3.0 mi South 8.1 mph - N/A   Overcast
9:35 PM 55.4 °F - 51.8 °F 88% 29.67 in 2.0 mi SSW 10.4 mph - N/A   Overcast
9:55 PM 55.4 °F - 53.6 °F 94% 29.68 in 3.0 mi SW 11.5 mph - N/A   Overcast
10:15 PM 55.4 °F - 53.6 °F 94% 29.69 in 5.0 mi WSW 11.5 mph - 0.01 in   Overcast
10:35 PM 55.4 °F - 51.8 °F 88% 29.70 in 10.0 mi WSW 13.8 mph - 0.01 in   Overcast
10:55 PM 55.4 °F - 51.8 °F 88% 29.70 in 10.0 mi West 15.0 mph 19.6 mph 0.01 in   Overcast
11:15 PM 53.6 °F - 50.0 °F 88% 29.71 in 10.0 mi West 18.4 mph 21.9 mph N/A   Overcast
11:35 PM 53.6 °F - 48.2 °F 82% 29.71 in 10.0 mi West 13.8 mph - N/A   Overcast
11:55 PM 51.8 °F - 48.2 °F 88% 29.73 in 10.0 mi West 16.1 mph - N/A   Overcast